[[{"header":{"parameterUnit":"m.s-1","parameterCategory":1,"la1":30.2991,"la2":30.254,"lo1":-89.0895,"lo2":-89.0444,"dy":0.0017,"dx":0.0017,"nx":28,"ny":28,"refTime":"2025-05-31T03:00:00:Z","depth":0,"parameterNumber":2,"parameterNumberName":"U-component_of_WINDS"},"data":[0,0,0,0,0,0,0,0,0,0,0,0,0,0,0,0,0,0,0,0,0,0,0,0,0,0,0,0,0,0,0,0,0,0,0,0,0,0,0,0,0,0,0,0,0,0,0,0,0,0,0,0,0,0,0,0,0,0,0.9292,0.9294,0,0.9461,0.9462,0.9464,0.9559,0.9559,0.9559,0.956,0.9736,0.974,0.9745,0,0,0,0,0,0,0,0,0,0,0,0,0,0.9056,0.906,0.9292,0.9294,0.9296,0.946,0.9463,0.9465,0.9559,0.9559,0.956,0.956,0.9734,0.974,0.9745,0,0,0,0,0,0,0,0,0,0,0,0,0,0.9185,0.9061,0.9292,0.9363,0.9371,0.946,0.9463,0.9465,0.9559,0.9559,0.956,0.956,0.9733,0.9739,0.9746,0.9778,0,0,0.9766,0.9769,0,0,0,0,0,0,0,0,0.9177,0.9193,0.935,0.9358,0.9367,0.9489,0.9444,0.957,0.9559,0.9488,0.956,0.956,0.9654,0.9667,0.9698,0.9786,0.9794,0.9766,0.9771,0.9773,0.9775,0,0,0,0,0,0,0,0.9168,0.9187,0.9359,0.9353,0.9363,0.9388,0.9406,0.9468,0.9566,0.9494,0.9501,0.9519,0.9658,0.9691,0.9702,0.9796,0.9766,0.9772,0.9776,0.9779,0.9919,0.9919,0,0,0,0,0,0,0.9148,0.9179,0.9354,0.9364,0.9271,0.9391,0.9413,0.945,0.9566,0.9584,0.9519,0.9523,0.9679,0.9695,0.9709,0.9754,0.9773,0.978,0.9783,0.9919,0.9919,0.9919,0,0,0,0,0,0,0.9142,0.9162,0.9347,0.9273,0.9299,0.9395,0.9436,0.9453,0.9485,0.9585,0.9603,0.9534,0.968,0.97,0.976,0.9761,0.9783,0.9789,0.992,0.9919,0.9919,0.9843,0,0,0,0,0,0,0.9135,0.916,0.9172,0.9273,0.9302,0.9393,0.9436,0.9456,0.9496,0.9503,0.9604,0.9621,0.9682,0.9749,0.9766,0.9771,0.9794,0.992,0.992,0.9919,0.9846,0.984,0.9835,0,0,0,0,0,0.9126,0.9145,0.9172,0.9193,0.932,0.9393,0.941,0.9479,0.9496,0.9509,0.9573,0.9618,0.9758,0.9754,0.9774,0.9781,0.992,0.992,0.9919,0.9848,0.9841,0.9835,0,0,0,0,0,0,0.9044,0.916,0.9191,0.9243,0.9307,0.9409,0.9429,0.947,0.9532,0.9536,0.9621,0.9643,0.9695,0.9744,0.9738,0.9818,0.9844,0.9847,0.9783,0.9778,0.9772,0.9759,0.9799,0,0,0,0,0,0.9031,0.908,0.918,0.9216,0.9246,0.9331,0.9366,0.9414,0.9485,0.9513,0.9581,0.9649,0.9708,0.9746,0.9806,0.9854,0.9877,0.9868,0.9863,0.9858,0.986,0.9888,0.9885,0.9917,0.9917,0.9917,0,0,0.9007,0.9076,0.9102,0.9201,0.9256,0.9306,0.9354,0.9405,0.9443,0.9521,0.9581,0.9633,0.9715,0.9768,0.9795,0.9811,0.9856,0.9857,0.9852,0.9857,0.9887,0.9884,0.9881,0.9917,0.9917,0.9917,0,0,0.8987,0.9044,0.908,0.9134,0.9217,0.9274,0.9282,0.9378,0.9415,0.9476,0.9536,0.9583,0.9684,0.9739,0.978,0.978,0.9823,0.9798,0.977,0.9796,0.9793,0.9792,0.9791,0.979,0.9799,0.9799,0.9799,0,0.8946,0.9022,0.9094,0.9141,0.9183,0.9254,0.9292,0.9341,0.944,0.9467,0.9484,0.9611,0.9671,0.9738,0.9737,0.9769,0.9781,0.9786,0.9788,0.9787,0.9786,0.9786,0.9786,0.9795,0.9796,0.9796,0.9796,0,0.8967,0.9019,0.9039,0.913,0.9174,0.9216,0.9295,0.9332,0.9375,0.943,0.9491,0.9566,0.9642,0.9661,0.9705,0.9734,0.9741,0.9771,0.9799,0.9778,0.978,0.978,0.979,0.9791,0.9792,0.9793,0,0,0.89,0.903,0.9036,0.9078,0.9175,0.9217,0.9262,0.9335,0.9364,0.943,0.947,0.9553,0.9581,0.9628,0.9678,0.9701,0.9696,0.9729,0.9732,0.9719,0.9732,0.9707,0.9706,0.9725,0.9725,0.9725,0.9724,0,0.8894,0.8977,0.9043,0.9102,0.915,0.9219,0.9258,0.9322,0.9374,0.9424,0.9483,0.954,0.9573,0.9601,0.9627,0.969,0.9699,0.9692,0.9763,0.9765,0.9739,0.9707,0.9683,0.9678,0.9726,0.9726,0.9726,0,0.8898,0.8959,0.9021,0.9112,0.9135,0.9169,0.924,0.9287,0.9361,0.9397,0.9448,0.9501,0.9552,0.9575,0.9647,0.9641,0.9674,0.971,0.9711,0.972,0.9743,0.9715,0.9679,0.9677,0.9728,0.9728,0.9727,0,0.8841,0.8939,0.899,0.9024,0.9131,0.9153,0.9198,0.9273,0.9312,0.9375,0.9402,0.947,0.9508,0.956,0.963,0.964,0.9695,0.9724,0.9726,0.9724,0.9734,0.9733,0.9702,0.9757,0.9757,0.9757,0.9757,0,0.8826,0.8862,0.8965,0.8996,0.9038,0.9114,0.9154,0.9206,0.9271,0.9313,0.9378,0.9417,0.9506,0.9556,0.9611,0.9662,0.9679,0.971,0.9724,0.9704,0.97,0.9726,0.9728,0.9757,0.9757,0.9757,0.9757,0,0.877,0.8841,0.89,0.8996,0.9021,0.9047,0.913,0.9163,0.9218,0.9271,0.9288,0.9376,0.9438,0.9512,0.9599,0.9636,0.9681,0.9703,0.9655,0.9663,0.9662,0.966,0.9647,0.9648,0.9702,0.9701,0.9701,0,0.8756,0.8785,0.8883,0.8915,0.8959,0.901,0.905,0.9126,0.9165,0.9251,0.9273,0.934,0.9397,0.9492,0.9564,0.9631,0.9654,0.9645,0.9664,0.9643,0.9653,0.965,0.9653,0.9639,0.9638,0.9637,0.9637,0,0.8722,0.8756,0.881,0.8876,0.8922,0.8978,0.9038,0.9061,0.9149,0.919,0.9253,0.9297,0.9384,0.9449,0.9524,0.9573,0.9619,0.963,0.9634,0.9613,0.9584,0.9598,0.964,0.963,0.963,0.9631,0.9631,0.9631,0.8687,0.8715,0.8788,0.8846,0.8898,0.8952,0.8987,0.9046,0.91,0.9175,0.9218,0.9279,0.9352,0.9458,0.9504,0.9554,0.9571,0.9577,0.9579,0.9579,0.9572,0.9576,0.9569,0.9569,0.9569,0.957,0.957,0,0.8656,0.8706,0.8758,0.8838,0.8884,0.8923,0.899,0.9026,0.9079,0.9143,0.9197,0.9269,0.9332,0.9408,0.9477,0.9502,0.9525,0.9517,0.9516,0.9526,0.9554,0.9543,0.9497,0.9497,0.9497,0.9497,0.9497,0.9497,0.8645,0.8694,0.8736,0.8812,0.8863,0.8922,0.8957,0.9007,0.9058,0.9135,0.9187,0.9236,0.9305,0.9378,0.9438,0.9459,0.9481,0.9466,0.9493,0.9518,0.9524,0.953,0.952,0.9471,0.9471,0.9462,0.9462,0.9462]},{"header":{"parameterUnit":"m.s-1","parameterCategory":1,"la1":30.2991,"la2":30.254,"lo1":-89.0895,"lo2":-89.0444,"dy":0.0017,"dx":0.0017,"nx":28,"ny":28,"refTime":"2025-05-31T03:00:00:Z","depth":0,"parameterNumber":3,"parameterNumberName":"V-component_of_WINDS"},"data":[0,0,0,0,0,0,0,0,0,0,0,0,0,0,0,0,0,0,0,0,0,0,0,0,0,0,0,0,0,0,0,0,0,0,0,0,0,0,0,0,0,0,0,0,0,0,0,0,0,0,0,0,0,0,0,0,0,0,1.8381,1.8381,0,1.8361,1.8361,1.8361,1.8302,1.8301,1.8299,1.8298,1.8276,1.8277,1.8278,0,0,0,0,0,0,0,0,0,0,0,0,0,1.8364,1.8365,1.8381,1.8381,1.8381,1.8361,1.8361,1.8361,1.8302,1.8301,1.8299,1.8298,1.8276,1.8277,1.8278,0,0,0,0,0,0,0,0,0,0,0,0,0,1.8361,1.8365,1.8381,1.8349,1.8346,1.8361,1.8361,1.8361,1.8302,1.8301,1.8299,1.8297,1.8276,1.8277,1.8278,1.8322,0,0,1.8281,1.8281,0,0,0,0,0,0,0,0,1.8361,1.8361,1.8354,1.8351,1.8348,1.8332,1.8347,1.8348,1.8303,1.8319,1.8298,1.8296,1.8296,1.8296,1.8296,1.8321,1.832,1.8281,1.8281,1.8282,1.8282,0,0,0,0,0,0,0,1.8361,1.8362,1.8373,1.8354,1.835,1.8334,1.8332,1.8347,1.8319,1.8317,1.8313,1.8312,1.8294,1.8295,1.8295,1.832,1.8281,1.8282,1.8282,1.8283,1.8374,1.8376,0,0,0,0,0,0,1.8366,1.8362,1.8374,1.8372,1.835,1.8336,1.8333,1.8339,1.8318,1.8313,1.8313,1.8309,1.8295,1.8294,1.8294,1.834,1.8282,1.8283,1.8283,1.8373,1.8375,1.8377,0,0,0,0,0,0,1.8366,1.8368,1.8375,1.8366,1.8366,1.8339,1.8346,1.834,1.834,1.8315,1.831,1.832,1.8293,1.8293,1.8314,1.8339,1.8283,1.8284,1.837,1.8373,1.8376,1.8435,0,0,0,0,0,0,1.8366,1.8368,1.8386,1.8367,1.8367,1.8397,1.8347,1.8341,1.8342,1.8337,1.832,1.8315,1.8292,1.8313,1.8315,1.8339,1.8285,1.8368,1.8372,1.8375,1.8431,1.844,1.8448,0,0,0,0,0,1.8366,1.8405,1.8387,1.8389,1.8388,1.8398,1.8398,1.837,1.8345,1.8361,1.8344,1.8316,1.8337,1.8316,1.8318,1.8342,1.8366,1.8371,1.8375,1.8427,1.8438,1.8447,0,0,0,0,0,0,1.8428,1.8402,1.8382,1.8416,1.841,1.8388,1.8408,1.8383,1.8384,1.8378,1.8344,1.834,1.8366,1.8357,1.8334,1.8381,1.8346,1.8351,1.8386,1.8396,1.8404,1.8404,1.8285,0,0,0,0,0,1.8445,1.8456,1.8433,1.8465,1.8463,1.8436,1.844,1.8419,1.841,1.8407,1.8392,1.8385,1.8389,1.8392,1.8395,1.843,1.8423,1.8448,1.8456,1.8463,1.8466,1.8479,1.8488,1.8391,1.8391,1.8391,0,0,1.8482,1.8469,1.8478,1.8477,1.8469,1.8479,1.8434,1.8448,1.8454,1.8409,1.8427,1.8416,1.8405,1.8432,1.8444,1.8425,1.8492,1.8468,1.8474,1.8473,1.8484,1.8493,1.8502,1.8394,1.8393,1.8393,0,0,1.8552,1.8546,1.8569,1.8562,1.8551,1.8532,1.8538,1.852,1.851,1.8528,1.8493,1.85,1.8509,1.8501,1.8498,1.8562,1.8534,1.8564,1.8606,1.8619,1.8626,1.8633,1.8651,1.8659,1.8569,1.8569,1.8569,0,1.8598,1.8613,1.8584,1.8599,1.8597,1.8557,1.8579,1.8573,1.8564,1.8563,1.8543,1.8551,1.8541,1.8563,1.8578,1.8579,1.8582,1.8565,1.8628,1.8634,1.864,1.8657,1.8664,1.8572,1.8572,1.8572,1.8571,0,1.8668,1.8679,1.8699,1.8689,1.8691,1.8709,1.8681,1.8686,1.8665,1.8648,1.8664,1.865,1.8648,1.8652,1.8633,1.867,1.8659,1.8635,1.8598,1.8653,1.8668,1.8675,1.8577,1.8576,1.8575,1.8574,0,0,1.8776,1.8749,1.8756,1.8749,1.8733,1.8739,1.8755,1.8752,1.8754,1.8749,1.8758,1.8766,1.8741,1.8738,1.8717,1.8729,1.8775,1.8702,1.8701,1.8712,1.881,1.8826,1.8835,1.8757,1.8759,1.876,1.881,0,1.8839,1.8863,1.8836,1.8866,1.8872,1.8833,1.8845,1.8835,1.882,1.8822,1.8805,1.8808,1.8779,1.8776,1.8786,1.8767,1.8793,1.8764,1.8762,1.8763,1.8763,1.8843,1.8861,1.8909,1.8816,1.8817,1.8818,0,1.8916,1.8911,1.8941,1.8919,1.8921,1.8933,1.8925,1.8929,1.8916,1.8903,1.8899,1.8872,1.8883,1.885,1.8862,1.8843,1.8841,1.8831,1.8832,1.8828,1.8791,1.8837,1.8924,1.893,1.8828,1.8827,1.8826,0,1.8985,1.8988,1.9005,1.9001,1.8977,1.8985,1.8975,1.896,1.8959,1.8953,1.895,1.8946,1.8943,1.8939,1.8911,1.8891,1.8925,1.8891,1.8912,1.8913,1.8919,1.8918,1.9002,1.8924,1.8924,1.8924,1.8924,0,1.9056,1.9074,1.9035,1.9045,1.9063,1.9032,1.905,1.9037,1.9023,1.9028,1.8995,1.9,1.8965,1.8965,1.8944,1.8954,1.8954,1.8942,1.8935,1.8943,1.8944,1.8939,1.8933,1.8926,1.8926,1.8925,1.8925,0,1.9136,1.9111,1.9126,1.9101,1.9095,1.9109,1.9087,1.9094,1.9076,1.9082,1.9081,1.9052,1.9051,1.9023,1.9017,1.9002,1.902,1.9009,1.9024,1.9019,1.904,1.9037,1.9121,1.9128,1.9049,1.905,1.9051,0,1.9181,1.9193,1.9169,1.917,1.9161,1.9164,1.9161,1.913,1.9129,1.9113,1.9121,1.9117,1.9111,1.911,1.9088,1.9081,1.9067,1.9097,1.9066,1.9072,1.9063,1.9061,1.906,1.9103,1.9104,1.9105,1.9105,0,1.9261,1.9247,1.9245,1.9238,1.9236,1.9229,1.922,1.9223,1.9188,1.9188,1.9186,1.9182,1.9173,1.9168,1.9157,1.9145,1.9118,1.9116,1.9119,1.9125,1.9132,1.9124,1.9037,1.9113,1.9112,1.9112,1.9111,1.9111,1.9321,1.9329,1.9312,1.931,1.93,1.9292,1.9295,1.9277,1.9275,1.9265,1.9247,1.9247,1.923,1.9212,1.9202,1.92,1.9184,1.9191,1.9192,1.9193,1.9195,1.9135,1.9199,1.9198,1.9198,1.9198,1.9198,0,1.9396,1.9383,1.9381,1.9369,1.9366,1.9342,1.933,1.9329,1.9329,1.9316,1.9311,1.9306,1.9301,1.9277,1.9268,1.9271,1.9258,1.9269,1.9266,1.9263,1.9212,1.9208,1.9279,1.9279,1.9279,1.9279,1.9279,1.9279,1.9434,1.9444,1.9428,1.9432,1.9419,1.9418,1.9412,1.9403,1.9392,1.9388,1.9383,1.9368,1.9349,1.9338,1.9331,1.9324,1.932,1.9335,1.9324,1.9275,1.9267,1.926,1.9255,1.9336,1.9336,1.9374,1.9375,1.9375]}]]